CAPE
1349 1128 1027 954 793 462 478 100 28 1 6 16 29 16 5 1 2 5 12 16 23 19 7 16 75 91 89 45 3 2 12 27 12 2 0 0 0 0 0 0 0 0 0
1271 1122 979 824 640 565 471 154 142 24 11 8 37 15 0 0 0 0 0 32 4 16 17 0 3 12 1 0 0 0 0 1 0 0 0 0 0 0 0 0 0 0 0
1536 1280 1073 681 495 415 164 274 338 14 98 205 115 305 0 4 1 25 23 0 2 0 1 5 0 0 0 0 0 0 0 0 0 0 0 0 0 0 0 1 2 3 5
1544 1505 1519 978 768 693 413 495 407 301 257 205 332 370 1 0 2 128 0 0 0 0 0 2 0 0 0 0 0 0 0 0 0 0 0 0 0 16 3 6 25 52 38
1668 1889 1620 1205 861 643 487 319 523 433 401 468 371 238 25 19 20 13 0 0 8 7 0 0 0 0 0 0 0 0 0 0 0 0 0 12 34 42 25 40 17 11 24
1437 1875 1341 1235 625 516 413 590 425 528 574 539 314 231 124 45 60 36 40 11 23 43 1 0 0 141 0 0 0 0 0 0 0 0 0 12 41 110 44 26 12 0 8
965 1143 1232 1021 844 404 178 572 750 732 825 440 498 81 68 140 68 98 110 31 6 1 0 0 0 0 0 0 0 0 0 0 0 0 0 0 3 4 27 127 144 17 0
655 753 978 814 1004 1073 604 600 687 497 507 389 197 96 181 75 42 55 11 7 0 0 0 0 0 0 0 0 0 0 0 0 0 0 0 0 0 0 0 0 31 18 76
395 215 290 271 392 392 348 295 175 412 52 43 106 92 91 118 13 22 8 0 0 0 0 4 2 0 0 0 0 0 0 0 0 0 0 0 0 0 0 3 111 39 24
74 48 63 169 15 46 68 87 68 34 31 15 32 197 36 10 0 0 0 0 0 0 0 0 0 0 0 0 0 0 0 0 0 0 0 0 0 0 0 0 0 1 1
93 114 50 101 151 79 31 26 81 74 59 32 2 0 0 0 0 0 0 0 0 0 0 0 0 4 7 1 1 0 0 0 0 35 236 199 181 1 0 1 15 64 86
166 26 0 1 0 1 21 60 15 51 91 4 0 0 0 0 0 0 0 0 0 0 0 0 2 20 26 32 14 8 47 140 146 142 58 9 5 36 63 106 132 152 188
137 197 116 123 47 130 80 8 7 18 6 8 5 0 0 0 0 0 0 0 0 0 0 0 0 8 23 17 21 4 4 6 0 0 0 0 0 0 0 5 310 319 220
222 244 284 57 47 31 18 7 0 0 4 10 0 0 1 9 17 27 18 10 0 0 0 0 0 0 21 7 10 2 0 0 0 0 0 0 0 1 0 92 202 311 535
516 461 212 41 0 0 0 0 0 0 0 0 1 20 22 18 18 17 29 38 24 21 3 0 0 0 0 7 4 0 0 0 1 6 75 134 150 82 82 272 118 49 1
262 100 43 31 0 0 0 0 0 0 0 0 16 18 22 15 7 3 32 201 177 72 26 3 0 0 0 0 0 29 43 78 149 234 271 250 253 209 298 412 216 26 0
257 61 15 0 0 0 0 21 4 3 6 3 0 0 0 2 0 0 0 24 161 115 27 49 20 0 7 4 80 333 331 261 421 495 563 405 252 305 393 572 214 58 0
472 32 0 0 0 1 8 20 20 16 21 22 6 0 21 19 3 0 0 0 4 6 62 57 34 29 90 175 350 356 223 372 701 584 253 115 353 457 505 466 121 34 0
462 338 229 229 133 35 15 13 24 27 25 55 25 19 32 43 51 30 3 0 0 0 0 0 0 0 7 41 83 152 211 354 543 557 481 60 246 537 447 265 68 7 0
453 311 147 257 229 101 13 2 7 28 26 27 84 71 93 97 97 70 40 15 0 0 0 0 0 0 0 0 0 32 184 415 414 376 380 310 168 239 248 109 118 67 0
663 601 535 244 169 243 286 227 6 4 27 78 144 112 132 39 69 89 52 55 48 15 20 26 9 0 0 7 192 360 443 503 591 415 357 468 475 328 275 204 72 98 0
729 702 654 579 462 381 449 397 394 376 133 88 170 330 290 166 83 44 58 126 132 103 87 115 63 3 0 40 103 287 490 645 585 205 180 227 185 189 218 259 127 68 38
932 834 668 681 594 585 490 432 243 242 200 103 152 160 207 303 222 47 47 62 77 173 235 289 229 172 157 212 346 567 685 448 376 163 146 119 216 229 303 261 195 76 91
283 555 822 763 554 410 217 418 414 355 248 130 290 329 294 184 103 113 161 263 256 207 452 549 617 518 253 292 590 586 62 13 9 33 42 25 35 67 107 173 180 127 113
223 374 361 353 16 30 329 530 117 49 105 213 284 322 269 260 344 363 315 207 273 260 410 453 484 386 378 428 231 76 66 5 5 0 0 0 0 1 0 2 34 159 77
368 342 324 220 91 231 182 106 64 34 0 3 40 272 348 367 214 67 122 168 168 129 200 142 136 92 67 91 63 112 74 62 7 28 45 2 2 0 1 0 24 44 9
CIN
-26 -49 -23 -22 -58 -89 -92 -167 -204 -201 -331 -264 -108 -18 -9 -138 -17 0 -19 -8 -10 -28 -16 -7 -15 -1 0 -1 -6 -1 -3 -1 -1 -7 0 -1 0 0 0 0 0 0 0
-1 -5 -5 -30 -25 -77 -90 -103 -130 -374 -176 -222 -116 -54 0 0 0 0 -1 -14 -58 -21 0 0 -33 -29 -2 0 0 0 0 0 0 0 0 0 0 0 0 0 0 0 0
0 -3 -16 -32 -32 -62 -72 -98 -81 -428 -192 -62 -69 -7 0 -96 -13 -67 -36 0 -1 0 0 -33 0 0 0 0 0 0 0 0 0 0 0 0 0 0 0 -1 -1 -23 -21
-42 -39 -11 -52 -86 -76 -71 -25 -46 -108 -136 -73 -11 -10 -7 0 -9 -10 0 0 0 0 0 -12 0 0 0 0 0 0 0 0 0 0 0 0 0 -51 -35 -22 -90 -47 -61
-35 -1 -4 -6 -20 -4 -13 -30 -54 -80 -56 -20 -14 -30 -57 -63 -61 -17 0 0 -21 -17 0 -2 0 0 0 0 0 0 0 0 0 0 0 -21 -21 -63 -46 -36 -29 -2 -34
-74 -5 -8 0 -36 -11 -32 -1 -28 -9 -12 -13 -40 -49 -58 -94 -72 -46 -42 -8 -27 -1 -6 0 -3 -19 0 0 0 0 0 0 0 0 0 -54 -62 -84 -75 -43 -34 -1 -49
-131 -75 -21 0 0 -9 -3 0 -9 -12 -4 -40 -14 -80 -68 -57 -60 -13 -12 -22 -3 -8 0 0 0 0 0 0 0 0 0 0 0 0 0 0 -62 -14 -94 -72 -67 -47 0
-153 -119 -57 -10 0 0 -34 -27 -24 -40 -32 -28 -60 -69 -31 -92 -69 -30 -12 -4 0 0 0 0 0 0 0 0 0 0 0 0 0 0 0 0 0 0 0 0 -123 -50 -62
-117 -150 -127 -102 -37 -37 -63 -82 -95 -35 -117 -105 -58 -60 -73 -28 -61 -61 -22 0 0 0 0 -17 -12 0 0 0 0 0 0 0 0 0 0 0 0 0 0 -68 -89 -91 -105
-174 -184 -161 -99 -153 -117 -94 -92 -104 -109 -136 -125 -86 -5 -90 -113 0 0 0 0 0 0 0 0 0 0 0 0 0 0 0 0 0 0 0 0 0 0 0 0 0 0 -3
-97 -111 -138 -70 -31 -50 -75 -90 -61 -62 -50 -68 -12 0 0 0 0 0 0 0 0 0 0 0 0 -31 -11 -12 -10 0 0 0 0 -15 -12 -21 -18 -2 0 -22 -29 -81 -81
-72 -121 0 -9 0 -2 -36 -48 -43 -48 -19 -9 0 0 0 0 0 0 0 0 0 0 0 0 -3 -22 -18 -18 -28 -31 -108 -59 -28 -26 -44 -79 -35 -50 -70 -78 -90 -73 -59
-88 -55 -72 -65 -104 -58 -63 -17 -18 -19 -10 -8 -11 0 0 0 0 0 0 0 0 0 0 0 0 -7 -12 -4 -17 -20 -9 -9 0 0 0 0 0 0 0 -71 -42 -20 -73
-62 -39 -23 -64 -69 -66 -39 -15 0 0 -9 -5 0 0 -7 -33 -41 -67 -68 -17 -3 0 0 0 0 0 -10 -3 -13 -3 0 0 0 0 0 0 0 -10 0 -97 -40 -67 -61
-21 -11 -31 -80 0 0 0 0 0 0 0 0 -5 -31 -40 -30 -44 -33 -69 -31 -35 -59 -28 0 0 0 0 -3 -1 0 0 0 -62 -22 -14 -4 -8 -29 -105 -27 -37 -76 -1
-58 -76 -87 -92 0 0 0 0 0 0 0 0 -22 -29 -23 -10 -11 -3 -21 -52 -57 -85 -27 -8 0 0 0 0 0 -44 -37 -24 -14 -9 -8 -9 -25 -14 -37 -25 -8 -71 0
-59 -109 -115 0 0 0 0 -71 -69 -60 -51 -42 0 0 0 -9 0 -1 0 -81 -82 -46 -64 -30 -35 0 -12 -42 -26 -5 -13 -22 -47 -30 -19 -27 -49 -11 -22 -21 -16 -35 0
-21 -104 0 0 0 -5 -18 -56 -63 -6 -72 -4 -14 -1 -3 -4 -3 0 0 0 -13 -10 -27 -12 -23 -51 -52 -38 -26 -19 -34 -61 -41 -39 -39 -116 -127 -54 -41 -26 -24 -43 0
-14 -9 -39 -29 -12 -19 -10 -43 -24 -42 -30 -44 -40 -22 -15 -41 -65 -82 -1 0 0 0 0 0 0 0 -42 -76 -59 -59 -62 -67 -38 -21 -24 -49 -163 -33 -19 -29 -14 -16 0
-32 -15 -39 -22 -17 -20 -27 -1 -15 -25 -9 -51 -66 -41 -44 -50 -28 -21 -49 -65 0 0 0 0 0 0 0 0 -78 -110 -58 -41 -100 -109 -75 -33 -57 -77 -25 -25 -9 -13 0
-27 -54 -32 -47 -45 -44 -32 -10 -1 -29 -37 -35 -33 -24 -17 -73 -73 -52 -49 -31 -16 -21 -25 -13 -20 0 0 -36 -115 -99 -84 -68 -37 -23 -171 -81 -50 -46 -21 -5 -21 -12 0
-30 -22 -41 -33 -34 -34 -33 -40 -27 -20 -15 -45 -102 -97 -47 -36 -29 -43 -98 -39 -43 -56 -52 -24 -15 -4 0 -5 -8 -101 -82 -62 -37 -94 -46 -35 -18 -9 -54 -23 -21 -16 -7
-32 -20 -29 -24 -44 -62 -62 -55 -44 -37 -21 -38 -12 -54 -173 -90 -56 -60 -83 -87 -115 -91 -88 -52 -28 -13 -72 -129 -91 -84 -36 -32 -52 -77 -75 -85 -4 -14 -18 -23 -24 -27 -13
-21 -7 -33 -37 -24 -49 -84 -54 -53 -31 -10 -8 -72 -80 -100 -81 -67 -81 -61 -60 -42 -132 -100 -57 -33 -10 -20 -25 -56 -28 -5 -48 -34 -19 -28 -27 -134 -84 -2 -8 -17 -19 -19
-19 -17 -11 -5 -12 -49 -36 -26 -16 -22 -21 -22 -21 -17 -18 -43 -125 -117 -109 -102 -55 -91 -82 -66 -70 -20 -71 -37 -37 -43 -21 -18 -28 -3 0 0 0 0 0 -12 0 -1 -6
-17 -10 -14 -17 -26 -36 -11 -8 -30 -51 -2 -3 -73 -51 -70 -46 -59 -156 -132 -112 -77 -82 -54 -26 -25 -34 -21 -94 -203 -172 -119 -69 -27 -175 -122 -20 -47 0 -5 -1 0 0 -2
Wind_Speed
49 50 52 44 32 24 32 25 nan nan nan nan nan nan nan nan nan nan nan nan nan nan nan nan nan nan nan nan nan nan nan nan nan nan nan nan nan nan nan nan nan nan nan
43 48 42 38 37 27 32 23 22 nan nan nan nan nan nan nan nan nan nan nan nan nan nan nan nan nan nan nan nan nan nan nan nan nan nan nan nan nan nan nan nan nan nan
42 40 37 43 23 33 28 25 22 nan nan 15 18 16 nan nan nan nan nan nan nan nan nan nan nan nan nan nan nan nan nan nan nan nan nan nan nan nan nan nan nan nan nan
30 37 37 42 56 41 34 29 20 16 21 19 19 25 nan nan nan 28 nan nan nan nan nan nan nan nan nan nan nan nan nan nan nan nan nan nan nan nan nan nan nan nan nan
26 32 32 40 45 46 34 29 27 21 19 20 23 27 nan nan nan nan nan nan nan nan nan nan nan nan nan nan nan nan nan nan nan nan nan nan nan nan nan nan nan nan nan
23 28 33 41 37 47 58 21 17 24 26 23 27 27 25 nan nan nan nan nan nan nan nan nan nan 20 nan nan nan nan nan nan nan nan nan nan nan 17 nan nan nan nan nan
23 25 28 34 35 45 19 17 23 27 31 25 28 nan nan 21 nan nan 17 nan nan nan nan nan nan nan nan nan nan nan nan nan nan nan nan nan nan nan nan 12 12 nan nan
21 19 21 27 26 25 23 26 27 26 34 27 20 nan 14 nan nan nan nan nan nan nan nan nan nan nan nan nan nan nan nan nan nan nan nan nan nan nan nan nan nan nan nan
18 17 17 17 22 24 24 25 28 35 nan nan 13 nan nan 11 nan nan nan nan nan nan nan nan nan nan nan nan nan nan nan nan nan nan nan nan nan nan nan nan 13 nan nan
nan nan nan 19 nan nan nan nan nan nan nan nan nan 10 nan nan nan nan nan nan nan nan nan nan nan nan nan nan nan nan nan nan nan nan nan nan nan nan nan nan nan nan nan
nan 21 nan 21 19 nan nan nan nan nan nan nan nan nan nan nan nan nan nan nan nan nan nan nan nan nan nan nan nan nan nan nan nan nan 10 12 13 nan nan nan nan nan nan
23 nan nan nan nan nan nan nan nan nan nan nan nan nan nan nan nan nan nan nan nan nan nan nan nan nan nan nan nan nan nan 20 18 16 nan nan nan nan nan 16 14 17 17
15 15 15 16 nan 15 nan nan nan nan nan nan nan nan nan nan nan nan nan nan nan nan nan nan nan nan nan nan nan nan nan nan nan nan nan nan nan nan nan nan 23 22 20
15 13 14 nan nan nan nan nan nan nan nan nan nan nan nan nan nan nan nan nan nan nan nan nan nan nan nan nan nan nan nan nan nan nan nan nan nan nan nan nan 25 25 24
13 16 18 nan nan nan nan nan nan nan nan nan nan nan nan nan nan nan nan nan nan nan nan nan nan nan nan nan nan nan nan nan nan nan nan 24 24 nan nan 24 25 nan nan
16 17 nan nan nan nan nan nan nan nan nan nan nan nan nan nan nan nan nan 27 29 nan nan nan nan nan nan nan nan nan nan nan 29 28 25 25 25 27 25 28 28 nan nan
19 nan nan nan nan nan nan nan nan nan nan nan nan nan nan nan nan nan nan nan 32 37 nan nan nan nan nan nan nan 26 26 32 33 30 29 27 24 27 26 26 28 nan nan
19 nan nan nan nan nan nan nan nan nan nan nan nan nan nan nan nan nan nan nan nan nan nan nan nan nan nan 30 31 32 33 33 34 32 30 29 26 26 31 31 30 nan nan
17 16 15 15 14 nan nan nan nan nan nan nan nan nan nan nan nan nan nan nan nan nan nan nan nan nan nan nan nan 27 30 30 30 29 28 nan 25 32 31 31 nan nan nan
17 18 16 15 15 18 nan nan nan nan nan nan nan nan nan nan nan nan nan nan nan nan nan nan nan nan nan nan nan nan 26 28 27 26 26 27 30 33 30 36 35 nan nan
18 18 18 19 21 21 22 22 nan nan nan nan 21 26 34 nan nan nan nan nan nan nan nan nan nan nan nan nan 17 19 24 25 25 27 26 26 28 34 33 35 nan nan nan
20 17 20 18 19 22 22 20 23 23 26 nan 26 24 31 29 nan nan nan 25 29 27 nan 22 nan nan nan nan 16 20 22 27 33 34 29 24 28 28 34 39 39 nan nan
14 17 25 18 20 19 22 21 21 24 26 25 23 23 24 25 27 nan nan nan nan 26 23 25 19 16 21 20 20 28 29 34 35 37 34 27 32 29 30 34 39 nan nan
7 20 22 16 19 18 15 16 16 21 20 22 26 24 23 24 19 18 23 24 22 21 26 26 19 22 20 18 28 33 nan nan nan nan nan nan nan nan 32 38 37 38 42
13 13 19 20 nan nan 29 22 16 nan 20 21 18 21 19 22 21 21 23 23 21 23 18 21 23 23 24 31 34 nan nan nan nan nan nan nan nan nan nan nan nan 38 nan
18 17 17 18 nan 23 27 28 nan nan nan nan nan 22 20 26 27 nan 24 23 21 30 31 32 29 nan nan nan nan 36 nan nan nan nan nan nan nan nan nan nan nan nan nan
Wind_Direction
302 295 295 296 301 298 300 297 nan nan nan nan nan nan nan nan nan nan nan nan nan nan nan nan nan nan nan nan nan nan nan nan nan nan nan nan nan nan nan nan nan nan nan
293 295 294 284 284 284 285 281 304 nan nan nan nan nan nan nan nan nan nan nan nan nan nan nan nan nan nan nan nan nan nan nan nan nan nan nan nan nan nan nan nan nan nan
275 277 282 282 268 279 277 274 294 nan nan 319 324 312 nan nan nan nan nan nan nan nan nan nan nan nan nan nan nan nan nan nan nan nan nan nan nan nan nan nan nan nan nan
279 287 282 286 289 264 260 259 263 273 296 312 309 320 nan nan nan 282 nan nan nan nan nan nan nan nan nan nan nan nan nan nan nan nan nan nan nan nan nan nan nan nan nan
275 289 284 278 285 280 258 244 271 260 304 302 303 311 nan nan nan nan nan nan nan nan nan nan nan nan nan nan nan nan nan nan nan nan nan nan nan nan nan nan nan nan nan
280 282 276 282 295 295 283 247 271 298 303 297 306 311 294 nan nan nan nan nan nan nan nan nan nan 299 nan nan nan nan nan nan nan nan nan nan nan 263 nan nan nan nan nan
287 288 294 296 294 295 333 295 292 296 296 305 313 nan nan 277 nan nan 274 nan nan nan nan nan nan nan nan nan nan nan nan nan nan nan nan nan nan nan nan 262 276 nan nan
282 285 287 291 290 305 283 288 282 270 296 300 299 nan 270 nan nan nan nan nan nan nan nan nan nan nan nan nan nan nan nan nan nan nan nan nan nan nan nan nan nan nan nan
300 296 304 310 315 315 313 271 250 281 nan nan 280 nan nan 258 nan nan nan nan nan nan nan nan nan nan nan nan nan nan nan nan nan nan nan nan nan nan nan nan 279 nan nan
nan nan nan 316 nan nan nan nan nan nan nan nan nan 253 nan nan nan nan nan nan nan nan nan nan nan nan nan nan nan nan nan nan nan nan nan nan nan nan nan nan nan nan nan
nan 299 nan 310 313 nan nan nan nan nan nan nan nan nan nan nan nan nan nan nan nan nan nan nan nan nan nan nan nan nan nan nan nan nan 248 242 249 nan nan nan nan nan nan
296 nan nan nan nan nan nan nan nan nan nan nan nan nan nan nan nan nan nan nan nan nan nan nan nan nan nan nan nan nan nan 269 259 262 nan nan nan nan nan 267 283 297 302
285 292 298 304 nan 307 nan nan nan nan nan nan nan nan nan nan nan nan nan nan nan nan nan nan nan nan nan nan nan nan nan nan nan nan nan nan nan nan nan nan 278 289 294
291 300 298 nan nan nan nan nan nan nan nan nan nan nan nan nan nan nan nan nan nan nan nan nan nan nan nan nan nan nan nan nan nan nan nan nan nan nan nan nan 268 263 265
291 292 293 nan nan nan nan nan nan nan nan nan nan nan nan nan nan nan nan nan nan nan nan nan nan nan nan nan nan nan nan nan nan nan nan 261 265 nan nan 272 268 nan nan
286 286 nan nan nan nan nan nan nan nan nan nan nan nan nan nan nan nan nan 313 308 nan nan nan nan nan nan nan nan nan nan nan 270 267 267 267 267 269 272 268 266 nan nan
295 nan nan nan nan nan nan nan nan nan nan nan nan nan nan nan nan nan nan nan 295 289 nan nan nan nan nan nan nan 268 269 269 270 271 271 270 273 271 273 278 277 nan nan
304 nan nan nan nan nan nan nan nan nan nan nan nan nan nan nan nan nan nan nan nan nan nan nan nan nan nan 272 271 272 271 269 267 266 268 267 262 271 273 273 277 nan nan
309 303 301 298 296 nan nan nan nan nan nan nan nan nan nan nan nan nan nan nan nan nan nan nan nan nan nan nan nan 272 270 267 264 260 260 nan 266 265 268 273 nan nan nan
307 319 311 290 295 303 nan nan nan nan nan nan nan nan nan nan nan nan nan nan nan nan nan nan nan nan nan nan nan nan 269 259 259 257 259 267 272 274 280 281 281 nan nan
288 300 314 306 309 312 299 291 nan nan nan nan 291 291 300 nan nan nan nan nan nan nan nan nan nan nan nan nan 269 263 260 261 266 265 269 275 282 281 283 282 nan nan nan
279 293 294 299 304 307 299 298 292 296 300 nan 298 299 312 301 nan nan nan 304 294 298 nan 285 nan nan nan nan 271 265 264 269 266 267 263 265 269 271 278 281 279 nan nan
268 315 315 309 313 321 313 313 308 302 298 303 304 304 301 305 292 nan nan nan nan 302 301 292 287 281 275 276 288 279 274 278 274 276 278 258 263 265 269 277 285 nan nan
8 328 334 332 305 304 319 308 299 286 291 302 309 311 308 311 310 312 305 302 295 304 291 296 293 293 278 287 281 280 nan nan nan nan nan nan nan nan 277 282 281 291 291
306 333 314 309 nan nan 291 294 307 nan 302 313 300 301 303 298 295 296 297 298 293 293 290 290 289 272 290 288 297 nan nan nan nan nan nan nan nan nan nan nan nan 291 nan
300 290 281 285 nan 298 299 302 nan nan nan nan nan 298 308 292 284 nan 289 285 287 280 274 272 259 nan nan nan nan 306 nan nan nan nan nan nan nan nan nan nan nan nan nan